Find Local Weather

World > North America > United States > Pennsylvania

Connie Mack Stadium, Pennsylvania Regional Weather

Lat: 40.00N, Lon: 75.17W
Wx Zone: PAZ071
Feedback
Expires:201812170200;;905619
ASUS41 KOKX 170114
RWROKX

Regional Weather Roundup
National Weather Service New York NY
800 PM EST SUN DEC 16 2018

Note: "FAIR" indicates few or no clouds below 12,000 feet with no
significant weather and/or obstructions to visibility.


PAZ047>061-062-071-170200-
Eastern Pennsylvania
  
CITY           SKY/WX    TMP DP  RH WIND       PRES   REMARKS
Philadelphia   CLOUDY    38  36  92 N15       29.83S WCI  29          
Allentown      CLOUDY    37  34  89 N3        29.85F                  
Scranton       CLOUDY    35  34  96 NE3       29.88R                  
$$


SKY/WX - Weather  TMP - Temperature  DP - Dew Point  RH - Relative Humidity
WIND - Wind Direction/Speed PRES - Barometric Pressure